Date,TemperatureHighF,TemperatureAvgF,TemperatureLowF,DewpointHighF,DewpointAvgF,DewpointLowF,HumidityHigh,HumidityAvg,HumidityLow,PressureMaxIn,PressureMinIn,WindSpeedMaxMPH,WindSpeedAvgMPH,GustSpeedMaxMPH,PrecipitationSumIn
2013-7-1,89.7,82.6,78.7,76.9,75.2,72.7,89,79,61,30.04,29.93,22,4,22,0.00
2013-7-2,88.5,82.8,77.9,77.6,75.5,72.6,91,79,66,30.12,29.99,16,3,17,0.02
2013-7-3,88.0,82.5,78.7,77.8,75.2,68.4,90,79,61,30.13,30.05,20,4,29,0.15
2013-7-4,90.2,84.2,74.8,76.5,74.2,69.1,93,73,58,30.14,30.05,23,4,26,0.31
2013-7-5,87.5,82.6,76.8,77.9,75.0,72.6,94,78,69,30.14,30.04,16,3,17,0.06
2013-7-6,88.3,83.5,80.0,78.1,74.0,71.2,87,73,60,30.12,30.01,15,4,18,0.12
2013-7-7,87.5,83.4,80.7,77.9,74.1,72.4,84,74,65,30.10,30.00,17,5,20,0.05
2013-7-8,88.1,83.4,80.2,74.9,72.8,70.9,82,71,59,30.15,30.05,15,3,17,0.01
2013-7-9,86.3,81.4,77.0,75.5,72.4,67.4,89,75,60,30.15,30.04,13,2,18,0.19
2013-7-10,79.0,77.7,76.7,73.8,72.3,71.0,91,84,78,30.08,30.05,6,0,7,0.01
2013-7-11,90.4,85.9,80.5,75.2,73.4,70.9,78,67,56,30.02,29.92,15,3,18,0.14
2013-7-12,89.9,81.0,77.1,76.0,73.8,70.0,90,79,56,29.99,29.91,10,1,12,0.00
2013-7-13,76.8,73.8,72.3,75.1,72.4,71.1,97,95,89,30.04,29.98,10,2,13,5.78
2013-7-14,88.6,78.8,72.2,75.5,73.1,69.9,97,84,56,30.09,30.00,16,3,20,0.54
2013-7-15,88.3,80.9,73.7,76.3,72.8,70.1,96,78,57,30.10,29.99,14,3,18,0.05
2013-7-16,83.9,78.8,73.1,74.2,71.9,67.8,96,80,63,30.15,30.05,24,5,28,0.98
2013-7-17,80.2,76.1,72.2,75.9,73.1,69.9,97,91,78,30.17,30.05,17,2,27,0.97
2013-7-18,84.5,75.9,71.5,77.4,73.6,70.5,97,93,72,30.15,30.06,15,1,17,1.90
2013-7-19,88.8,81.0,72.9,79.3,75.4,72.0,97,84,64,30.15,30.04,14,2,16,0.00
2013-7-20,87.5,82.4,76.3,77.7,75.7,69.8,89,81,64,30.12,30.04,16,3,18,0.06
2013-7-21,90.8,82.8,77.5,78.1,76.3,73.7,94,81,62,30.15,30.05,16,2,16,0.00
2013-7-22,90.6,84.4,80.4,76.9,74.4,69.4,86,73,56,30.15,30.05,13,3,15,0.00
2013-7-23,91.6,84.0,77.1,79.1,74.7,71.6,90,75,55,30.11,29.96,11,3,15,0.08
2013-7-24,93.8,85.2,78.2,76.7,73.4,66.9,92,70,45,30.02,29.89,15,3,16,0.01
2013-7-25,85.0,79.9,76.7,75.0,73.2,71.5,88,80,69,30.00,29.93,11,2,11,0.00
2013-7-26,94.1,82.7,76.0,76.4,74.2,70.1,95,79,47,30.02,29.91,16,3,21,0.89
2013-7-27,83.3,79.8,76.5,78.6,75.8,73.0,93,88,82,30.03,29.95,11,2,16,0.14
2013-7-28,90.6,82.0,76.2,78.7,75.3,72.0,96,81,56,30.08,29.97,13,2,13,0.37
2013-7-29,89.6,83.5,77.4,78.8,76.1,72.6,94,79,59,30.14,30.03,13,3,16,0.00
2013-7-30,88.9,84.2,78.8,78.8,76.6,73.6,92,78,67,30.17,30.06,14,4,18,0.47
2013-7-31,89.3,85.1,81.5,76.8,75.0,72.1,83,72,62,30.12,29.98,16,4,17,0.00